Home   Weather   Kerpen   Past weeks

Flag for Germany Past Weather in Kerpen, North Rhine-Westphalia, Germany — Yesterday and Last 2 Weeks

Now
27 °F

Passing clouds.


Feels Like: 27 °F
Forecast: 23 / 32 °F
Wind: 1 mph from West

Location: Noervenich

Current Time: Jan 22, 2017 at 7:53:29 pm

Latest Report: Jan 22, 2017 at 6:20 pm


Visibility: N/A

Pressure: 30.30 "Hg

Humidity: 80%

Dew Point: 21 °F

Location of KerpenLocation

Past Weather in Kerpen — Graph

°F

Kerpen Temperature Yesterday

Maximum temperature yesterday: 37 °F (at 2:20 pm)
Minimum temperature yesterday: 23 °F (at 12:20 am)
Average temperature yesterday: 30 °F

High & Low Weather Summary for the Past Weeks

 TemperatureHumidityPressure
High46 °F (Jan 11, 12:20 pm)100% (Jan 7, 7:20 pm)30.69 "Hg (Jan 7, 7:20 pm)
Low16 °F (Jan 20, 5:20 am)41% (Jan 20, 2:20 pm)28.94 "Hg (Jan 13, 1:20 am)
Average32 °F85%30.16 "Hg
* Reported Jan 7 6:20 pm — Jan 22 6:20 pm, Kerpen, Weather by CustomWeather, © 2017

Note: Actual official high and low records may vary slightly from our data, if they occured in-between our weather recording intervals... More about our weather records

Advertising

Kerpen Weather History for the Previous 24 Hours

Scroll right to see more
 ConditionsComfort  
Time TempWeatherWind HumidityBarometerVisibility
6:20 pm
Sun, Jan 22
27 °FPassing clouds.1 mph80%30.30 "HgN/A
5:20 pm28 °FPassing clouds.3 mph74%30.27 "HgN/A
4:20 pm32 °FPassing clouds.3 mph64%30.27 "HgN/A
3:20 pm34 °FPassing clouds.1 mph60%30.27 "HgN/A
2:20 pm34 °FPassing clouds.2 mph60%30.27 "HgN/A
1:20 pm32 °FPassing clouds.2 mph64%30.30 "HgN/A
12:20 pm28 °FPassing clouds.2 mph74%30.30 "HgN/A
11:20 am27 °FPassing clouds.2 mph74%30.33 "HgN/A
10:20 am23 °FPassing clouds.2 mph80%30.33 "HgN/A
9:20 am18 °FPassing clouds.3 mph93%30.33 "HgN/A
8:20 am16 °FPassing clouds.5 mph93%30.33 "HgN/A
7:20 am18 °FCold.5 mph86%30.33 "HgN/A
6:20 am18 °FCold.No wind86%30.33 "HgN/A
5:20 am19 °FCold.2 mph86%30.33 "HgN/A
4:20 am19 °FCold.2 mph86%30.33 "HgN/A
3:20 am19 °FCold.3 mph93%30.33 "HgN/A
2:20 am19 °FCold.5 mph79%30.33 "HgN/A
1:20 am21 °FCold.5 mph86%30.33 "HgN/A
12:20 am25 °FCold.3 mph74%30.36 "HgN/A
11:20 pm
Sat, Jan 21
27 °FChilly.6 mph74%30.36 "HgN/A
10:20 pm28 °FChilly.6 mph69%30.33 "HgN/A
9:20 pm30 °FChilly.5 mph64%30.33 "HgN/A
8:20 pm32 °FChilly.6 mph60%30.36 "HgN/A
7:20 pm34 °FChilly.8 mph56%30.36 "HgN/A
Weather by CustomWeather, © 2017

See weather overviewHow to use our weather pages